Location: Waning Moon II Observatory
(30.3730°N, 89.7620°W)
Time: 22:29:19
(UTC-05:00)

Cosmos 1825 Rocket - Visible Passes

Search period start: 29 June 2015 00:00
Search period end: 09 July 2015 00:00
Orbit: 605 x 631 km, 82.5° (Epoch: 29 June)

Date Brightness Start Highest point End Pass type
(mag) Time Alt. Az. Time Alt. Az. Time Alt. Az.
29 Jun 4.5 03:53:20 10° N 03:57:31 46° E 04:00:26 18° SSE visible
30 Jun 3.4 04:10:17 10° N 04:14:39 84° W 04:16:38 32° S visible
01 Jul 6.3 02:52:06 10° NE 02:53:35 12° ENE 02:55:21 10° E visible
01 Jul 4.0 04:27:39 10° NNW 04:31:42 39° W 04:32:56 31° SW visible
02 Jul 5.5 03:07:32 10° NNE 03:10:59 23° ENE 03:12:11 21° ESE visible
02 Jul 5.0 04:45:33 10° NW 04:48:44 19° W 04:49:17 19° W visible
03 Jul 4.2 03:24:03 10° N 03:28:15 47° E 03:28:36 46° E visible
04 Jul 3.5 03:41:02 10° N 03:45:04 74° NW 03:45:04 74° NW visible
05 Jul 6.3 02:22:40 10° NE 02:24:19 12° ENE 02:24:28 12° ENE visible
05 Jul 4.4 03:58:24 10° NNW 04:01:35 34° WNW 04:01:35 34° WNW visible
06 Jul 5.6 02:38:13 10° NNE 02:41:01 23° ENE 02:41:01 23° ENE visible
06 Jul 5.4 04:16:22 10° NW 04:18:08 17° WNW 04:18:08 17° WNW visible
07 Jul 5.0 02:54:45 10° N 02:57:37 36° NNE 02:57:37 36° NNE visible
08 Jul 4.9 03:11:46 10° N 03:14:14 33° NNW 03:14:14 33° NNW visible
